Location: High Cliff State Park
(44.1557°N, 88.2948°W)
Time: 00:42:52
(UTC-06:00)

Amateur Radio Satellites - All Passes

Search period start: 24 November 2014 00:12
Search period end: 25 November 2014 00:12
Location: High Cliff State Park, 44.1557°N, 88.2948°W

Satellite Date Start Highest point End Downlink Frequencies (MHz)
Time Altitude Azimuth
POLYITAN 1 24 Nov 00:15:17 00:17:52 16° 297° (WNW) 00:20:27 437.675
QB50P2 24 Nov 00:18:27 00:20:52 15° 298° (WNW) 00:23:17 145.880/145.840
SWISSCUBE 24 Nov 00:24:23 00:29:11 86° 75° (ENE) 00:34:02 437.505
KKS-1 24 Nov 00:25:46 00:28:51 19° 63° (ENE) 00:31:57 437.445
DUCHIFAT 1 24 Nov 00:26:33 00:28:26 13° 299° (WNW) 00:30:19 145.980
TIGRISAT 24 Nov 00:27:52 00:28:27 10° 301° (WNW) 00:29:02 435.000
TISAT 1 24 Nov 00:35:46 00:37:35 12° 270° (W) 00:39:23 437.305
SPROUT 24 Nov 00:37:36 00:39:52 14° 270° (W) 00:42:09 437.525
AUBIESAT-1 24 Nov 00:46:20 00:49:47 27° 261° (W) 00:53:31 437.475
M-CUBED/EXP-1 PRIME 24 Nov 00:50:11 00:53:24 23° 262° (W) 00:56:52 437.505
ITAMSAT 1 24 Nov 00:51:03 00:53:10 12° 88° (E) 00:55:17 435.822/435.867
BEESAT 24 Nov 00:56:14 01:00:53 51° 260° (W) 01:05:35 436.000
Gurwin Techsat 1B 24 Nov 01:10:04 01:11:23 11° 87° (E) 01:12:42 435.225
STARS 24 Nov 01:25:08 01:29:23 49° 71° (ENE) 01:33:38 437.465
CUSAT 1 24 Nov 01:28:17 01:30:27 13° 269° (W) 01:32:51 437.405
Oscar 19 24 Nov 01:40:12 01:45:23 90° 290° (WNW) 01:50:34 437.125/150
YUBILEINY 24 Nov 01:44:35 01:52:35 41° 86° (E) 02:00:34 435.215
DANDE 24 Nov 01:45:41 01:45:49 10° 269° (W) 01:45:58 436.750
ISS 24 Nov 01:47:21 01:50:23 33° 341° (NNW) 01:53:25 145.825
ITUPSAT 1 24 Nov 01:52:37 01:55:34 16° 269° (W) 01:58:32 437.325
KKS-1 24 Nov 02:00:51 02:05:09 48° 260° (W) 02:09:29 437.445
RS-15 24 Nov 02:01:43 02:12:38 60° 245° (WSW) 02:24:02 29.354- 29.394
SWISSCUBE 24 Nov 02:06:26 02:07:41 11° 272° (W) 02:08:57 437.505
ITAMSAT 1 24 Nov 02:28:07 02:33:20 84° 285° (WNW) 02:38:30 435.822/435.867
PCSat 24 Nov 02:28:55 02:30:05 11° 27° (NNE) 02:31:16 145.827
Gurwin Techsat 1B 24 Nov 02:46:47 02:52:08 85° 104° (ESE) 02:57:27 435.225
MOZHAYETS 4 24 Nov 02:50:24 02:53:27 18° 63° (ENE) 02:56:31
STARS 24 Nov 03:03:17 03:06:09 17° 268° (W) 03:09:01 437.465
HORYU 2 24 Nov 03:06:20 03:10:48 62° 102° (ESE) 03:15:15 437.375
Oscar 19 24 Nov 03:21:31 03:23:59 14° 303° (WNW) 03:26:27 437.125/150
ISS 24 Nov 03:25:04 03:27:42 21° 1° (N) 03:30:19 145.825
AO-7 24 Nov 03:27:33 03:35:10 37° 97° (E) 03:42:43 29.400- 29.500
YUBILEINY 24 Nov 03:40:50 03:49:14 48° 287° (WNW) 03:57:41 435.215
JAS-2 24 Nov 03:45:02 03:49:23 17° 84° (E) 03:53:26 435.910
BEESAT 3 24 Nov 04:03:05 04:06:32 24° 43° (NE) 04:09:58 437.485
SO-50 24 Nov 04:04:39 04:09:07 67° 121° (ESE) 04:13:45 436.795
STRAND 1 24 Nov 04:05:27 04:06:21 10° 55° (NE) 04:07:15 437.568
ITAMSAT 1 24 Nov 04:09:47 04:12:01 13° 304° (NW) 04:14:14 435.822/435.867
PCSat 24 Nov 04:09:57 04:15:05 40° 50° (NE) 04:20:10 145.827
BEESAT 2 24 Nov 04:16:33 04:20:14 28° 45° (NE) 04:23:52 435.950
RS-15 24 Nov 04:18:42 04:22:32 12° 266° (W) 04:26:26 29.354- 29.394
MOZHAYETS 4 24 Nov 04:25:46 04:30:15 54° 260° (W) 04:34:48
CUBESAT XI-V 24 Nov 04:26:10 04:28:36 14° 60° (ENE) 04:31:03 437.345
Gurwin Techsat 1B 24 Nov 04:28:28 04:31:23 15° 302° (WNW) 04:34:18 435.225
AIST 2 24 Nov 04:41:09 04:44:51 27° 44° (NE) 04:48:30 435.215
HORYU 2 24 Nov 04:44:22 04:46:59 16° 299° (WNW) 04:49:37 437.375
PRISM 24 Nov 04:49:22 04:53:29 56° 72° (ENE) 04:57:39 437.425
Cubesat XI-IV 24 Nov 04:52:07 04:54:21 13° 88° (E) 04:56:34 437.490
ISS 24 Nov 05:01:50 05:04:58 38° 21° (NNE) 05:08:05 145.825
AO-7 24 Nov 05:20:08 05:28:12 55° 297° (WNW) 05:36:15 29.400- 29.500
O/OREOS (USA 219) 24 Nov 05:26:14 05:29:57 26° 103° (ESE) 05:33:39 437.305
JAS-2 24 Nov 05:28:11 05:35:33 88° 285° (WNW) 05:41:59 435.910
CUTE-I 24 Nov 05:32:18 05:36:55 29° 95° (E) 05:41:30 437.470
STRAND 1 24 Nov 05:39:29 05:44:36 70° 73° (ENE) 05:49:44 437.568
BEESAT 3 24 Nov 05:40:57 05:44:57 44° 242° (WSW) 05:48:54 437.485
SO-50 24 Nov 05:46:37 05:50:08 21° 322° (NW) 05:53:44 436.795
PCSat 24 Nov 05:53:34 05:58:24 33° 249° (WSW) 06:03:11 145.827
BEESAT 2 24 Nov 05:54:43 05:58:35 36° 243° (WSW) 06:02:24 435.950
CUBESAT XI-V 24 Nov 06:00:43 06:05:26 76° 258° (WSW) 06:10:11 437.345
AIST 2 24 Nov 06:19:34 06:23:37 40° 243° (WSW) 06:27:35 435.215
PRISM 24 Nov 06:27:15 06:29:24 14° 269° (W) 06:31:34 437.425
Cubesat XI-IV 24 Nov 06:29:46 06:35:08 86° 286° (WNW) 06:40:27 437.490
AIST 1 24 Nov 06:33:35 06:37:58 61° 79° (E) 06:42:16
ISS 24 Nov 06:38:31 06:41:37 38° 219° (SW) 06:44:42 145.825
O/OREOS (USA 219) 24 Nov 07:05:07 07:09:12 34° 301° (WNW) 07:13:18 437.305
CUTE-I 24 Nov 07:12:09 07:17:04 39° 293° (WNW) 07:21:56 437.470
JAS-2 24 Nov 07:14:34 07:19:26 20° 307° (NW) 07:24:00 435.910
AO-7 24 Nov 07:15:09 07:19:10 15° 319° (NW) 07:23:12 29.400- 29.500
STRAND 1 24 Nov 07:21:17 07:24:17 16° 270° (W) 07:27:18 437.568
GONETS M04 24 Nov 07:34:08 07:42:17 45° 87° (E) 07:50:31
SEEDS 24 Nov 07:53:12 07:55:27 14° 90° (E) 07:57:40 437.485
HO-68 24 Nov 08:01:06 08:07:17 30° 95° (E) 08:13:24 435.675
BRITE-PL 24 Nov 08:01:32 08:04:23 18° 92° (E) 08:07:13 437.365/2234.400
Cubesat XI-IV 24 Nov 08:11:53 08:14:25 14° 304° (WNW) 08:16:58 437.490
AIST 1 24 Nov 08:13:12 08:15:03 13° 277° (W) 08:16:52
AAUSAT CUBESAT 2 24 Nov 08:13:42 08:16:33 17° 92° (E) 08:19:23 437.432
TIGRISAT 24 Nov 08:15:39 08:16:42 11° 59° (ENE) 08:17:46 435.000
CANX-2 24 Nov 08:17:06 08:20:56 31° 96° (E) 08:24:46 2200.000
UNISAT 6 24 Nov 08:26:44 08:29:04 15° 62° (ENE) 08:31:25 437.425
COMPASS 1 24 Nov 08:26:58 08:30:36 27° 95° (E) 08:34:13 437.405
NANOSAT C BR1 24 Nov 08:30:00 08:31:12 11° 60° (ENE) 08:32:24 145.865
DELFI C3 24 Nov 08:30:41 08:31:43 11° 89° (E) 08:32:46 145.870
QB50P1 24 Nov 08:38:33 08:40:42 14° 62° (ENE) 08:42:51 145.935-145.965
DOVE 4 24 Nov 08:47:44 08:51:26 30° 96° (E) 08:55:11 437.250
CUTE 1.7 & AOD 2 24 Nov 08:51:45 08:56:02 69° 101° (ESE) 09:00:18 437.475
ANTELSAT 24 Nov 08:53:46 08:57:21 27° 67° (ENE) 09:00:57 437.575/2403.000
BUGSAT 1 24 Nov 08:58:46 09:01:43 19° 64° (ENE) 09:04:40 437.445
POPSAT HIP 1 24 Nov 09:01:39 09:05:01 23° 66° (ENE) 09:08:23 437.405
UKube-1 24 Nov 09:09:25 09:13:15 30° 97° (E) 09:17:03 .
FUNcube-1 24 Nov 09:09:55 09:12:30 16° 92° (E) 09:15:05 145.935
GOMX 1 24 Nov 09:20:20 09:24:30 87° 284° (WNW) 09:28:43 467.674
Oscar 11 24 Nov 09:21:56 09:26:10 48° 99° (E) 09:30:22 145.826/435.025
CUBEBUG 2 24 Nov 09:25:41 09:29:27 31° 97° (E) 09:33:17 437.445
SEEDS 24 Nov 09:27:27 09:31:38 56° 287° (WNW) 09:35:49 437.485
UWE-3 24 Nov 09:30:06 09:33:50 30° 96° (E) 09:37:38 435.000/436.395/437.385
GONETS M04 24 Nov 09:30:51 09:39:07 44° 288° (WNW) 09:47:30
POLYITAN 1 24 Nov 09:33:05 09:37:12 49° 72° (ENE) 09:41:19 437.675
QB50P2 24 Nov 09:35:52 09:40:01 52° 72° (ENE) 09:44:10 145.880/145.840
CINEMA 3 24 Nov 09:38:01 09:42:11 67° 102° (ESE) 09:46:28 145.822/145.860
BRITE-PL 24 Nov 09:39:16 09:43:08 39° 289° (WNW) 09:47:00 437.365/2234.400
DX 1 24 Nov 09:42:38 09:46:59 70° 103° (ESE) 09:51:18 434.975-435.025
DUCHIFAT 1 24 Nov 09:43:10 09:47:22 62° 73° (ENE) 09:51:34 145.980
HO-68 24 Nov 09:48:20 09:55:19 56° 293° (WNW) 10:02:15 435.675
AAUSAT CUBESAT 2 24 Nov 09:48:25 09:52:27 44° 288° (WNW) 09:56:28 437.432
TIGRISAT 24 Nov 09:48:34 09:52:50 82° 257° (WSW) 09:57:07 435.000
CANX-2 24 Nov 09:53:14 09:56:46 25° 293° (WNW) 10:00:18 2200.000
ESTCUBE 1 24 Nov 09:57:09 09:59:14 13° 89° (E) 10:01:18 437.505/2401.250
UNISAT 6 24 Nov 10:01:12 10:05:25 59° 259° (W) 10:09:39 437.425
NANOSAT C BR1 24 Nov 10:02:11 10:06:27 82° 257° (WSW) 10:10:44 145.865
COMPASS 1 24 Nov 10:02:39 10:06:18 28° 292° (WNW) 10:09:57 437.405
DELFI C3 24 Nov 10:03:22 10:07:29 68° 285° (WNW) 10:11:36 145.870
VELOX 1 24 Nov 10:03:57 10:08:05 37° 98° (E) 10:12:10 145.980
HUMSAT D 24 Nov 10:07:21 10:11:17 39° 98° (E) 10:15:13 437.325/437.525
ZACube-1 24 Nov 10:09:18 10:13:31 70° 102° (ESE) 10:17:47 437.345
50 SAT 24 Nov 10:09:20 10:13:04 34° 97° (E) 10:16:47 437.505
QB50P1 24 Nov 10:11:52 10:16:06 64° 259° (WSW) 10:20:21 145.935-145.965
DOVE 4 24 Nov 10:25:47 10:29:08 24° 293° (WNW) 10:32:30 437.250
AISAT 24 Nov 10:28:48 10:33:15 70° 102° (ESE) 10:37:38 437.250
CUTE 1.7 & AOD 2 24 Nov 10:29:27 10:31:25 13° 299° (WNW) 10:33:24 437.475
ANTELSAT 24 Nov 10:30:23 10:34:06 29° 264° (W) 10:37:50 437.575/2403.000
BUGSAT 1 24 Nov 10:32:49 10:36:55 45° 261° (W) 10:41:00 437.445
POPSAT HIP 1 24 Nov 10:36:52 10:40:46 34° 263° (W) 10:44:40 437.405
FUNcube-1 24 Nov 10:45:04 10:49:07 48° 288° (WNW) 10:53:14 145.935
UKube-1 24 Nov 10:45:40 10:49:20 27° 293° (WNW) 10:52:59 .
CUBEBUG 1 24 Nov 10:49:05 10:53:14 41° 98° (E) 10:57:21 437.445
SO-50 24 Nov 10:55:00 10:58:23 18° 36° (NE) 11:01:47 436.795
Oscar 11 24 Nov 10:59:03 11:01:59 18° 296° (WNW) 11:04:55 145.826/435.025
CUBEBUG 2 24 Nov 11:02:38 11:06:04 25° 293° (WNW) 11:09:33 437.445
UWE-3 24 Nov 11:06:50 11:10:18 25° 292° (WNW) 11:13:50 435.000/436.395/437.385
POLYITAN 1 24 Nov 11:10:48 11:13:26 16° 268° (W) 11:16:04 437.675
QB50P2 24 Nov 11:13:49 11:16:16 15° 269° (W) 11:18:42 145.880/145.840
CINEMA 3 24 Nov 11:17:07 11:18:55 13° 298° (WNW) 11:20:44 145.822/145.860
DX 1 24 Nov 11:20:36 11:22:41 13° 300° (WNW) 11:24:44 434.975-435.025
Oscar 19 24 Nov 11:21:07 11:24:53 21° 62° (ENE) 11:28:40 437.125/150
DUCHIFAT 1 24 Nov 11:21:47 11:23:39 13° 270° (W) 11:25:31 145.980
ESTCUBE 1 24 Nov 11:32:03 11:36:35 68° 286° (WNW) 11:41:04 437.505/2401.250
HO-68 24 Nov 11:38:43 11:41:31 13° 314° (NW) 11:44:19 435.675
VELOX 1 24 Nov 11:41:00 11:44:29 23° 295° (WNW) 11:47:56 145.980
HUMSAT D 24 Nov 11:43:51 11:46:51 20° 295° (WNW) 11:49:51 437.325/437.525
50 SAT 24 Nov 11:45:07 11:48:12 21° 294° (WNW) 11:51:17 437.505
ZACube-1 24 Nov 11:47:36 11:49:23 13° 299° (WNW) 11:51:10 437.345
YUBILEINY 24 Nov 11:52:54 11:59:18 22° 61° (ENE) 12:05:39 435.215
AISAT 24 Nov 12:07:09 12:09:19 14° 300° (WNW) 12:11:29 437.250
ITAMSAT 1 24 Nov 12:09:38 12:13:46 24° 63° (ENE) 12:17:53 435.822/435.867
ITUPSAT 1 24 Nov 12:13:30 12:16:00 14° 90° (E) 12:18:29 437.325
TISAT 1 24 Nov 12:16:35 12:20:50 85° 284° (WNW) 12:25:01 437.305
SPROUT 24 Nov 12:20:34 12:24:53 87° 285° (WNW) 12:29:09 437.525
SWISSCUBE 24 Nov 12:24:23 12:27:54 20° 92° (E) 12:31:23 437.505
CUBEBUG 1 24 Nov 12:26:07 12:29:21 21° 296° (WNW) 12:32:33 437.445
AUBIESAT-1 24 Nov 12:27:10 12:31:04 23° 98° (E) 12:34:53 437.475
M-CUBED/EXP-1 PRIME 24 Nov 12:30:52 12:35:04 27° 99° (E) 12:39:11 437.505
Gurwin Techsat 1B 24 Nov 12:31:15 12:35:16 22° 62° (ENE) 12:39:18 435.225
SO-50 24 Nov 12:34:43 12:39:36 90° 59° (ENE) 12:44:31 436.795
AO-7 24 Nov 12:40:46 12:44:57 15° 42° (NE) 12:49:09 29.400- 29.500
BEESAT 24 Nov 12:55:12 12:59:39 36° 97° (E) 13:04:03 436.000
Oscar 19 24 Nov 12:58:51 13:03:50 54° 260° (W) 13:08:52 437.125/150
CUSAT 1 24 Nov 12:59:29 13:02:14 78° 100° (E) 13:04:50 437.405
DANDE 24 Nov 13:17:24 13:20:14 67° 281° (W) 13:22:50 436.750
ITAMSAT 1 24 Nov 13:47:55 13:52:57 48° 260° (W) 13:58:01 435.822/435.867
YUBILEINY 24 Nov 13:48:35 13:57:21 87° 263° (W) 14:06:02 435.215
ITUPSAT 1 24 Nov 13:49:35 13:54:23 69° 287° (WNW) 13:59:09 437.325
KKS-1 24 Nov 13:50:54 13:54:45 28° 96° (E) 13:58:35 437.445
JAS-2 24 Nov 14:00:24 14:03:38 13° 47° (NE) 14:06:52 435.910
SWISSCUBE 24 Nov 14:01:24 14:06:01 48° 290° (WNW) 14:10:37 437.505
AUBIESAT-1 24 Nov 14:01:30 14:06:13 48° 295° (WNW) 14:10:53 437.475
M-CUBED/EXP-1 PRIME 24 Nov 14:05:33 14:10:10 41° 296° (WNW) 14:14:45 437.505
HORYU 2 24 Nov 14:06:23 14:10:47 69° 74° (ENE) 14:15:13 437.375
Gurwin Techsat 1B 24 Nov 14:09:40 14:14:51 54° 260° (W) 14:20:05 435.225
SO-50 24 Nov 14:17:28 14:19:28 12° 253° (WSW) 14:21:27 436.795
RS-15 24 Nov 14:19:37 14:26:30 19° 99° (E) 14:33:20 29.354- 29.394
VERMONT LUNAR 24 Nov 14:27:25 14:29:28 15° 151° (SSE) 14:31:31 437.305
AO-7 24 Nov 14:27:58 14:35:59 57° 64° (ENE) 14:44:04 29.400- 29.500
BEESAT 24 Nov 14:33:20 14:37:21 27° 295° (WNW) 14:41:21 436.000
STARS 24 Nov 14:50:00 14:54:25 81° 103° (ESE) 14:58:49 437.465
MaSat-1 24 Nov 15:16:08 15:19:07 64° 115° (ESE) 15:21:50 437.345
KKS-1 24 Nov 15:27:31 15:31:22 30° 293° (WNW) 15:35:12 437.445
O/OREOS (USA 219) 24 Nov 15:33:47 15:38:14 65° 64° (ENE) 15:42:41 437.305
JAS-2 24 Nov 15:39:35 15:46:56 53° 68° (ENE) 15:54:31 435.910
HORYU 2 24 Nov 15:46:14 15:47:57 12° 271° (W) 15:49:40 437.375
PHONESAT 2.4 24 Nov 15:46:19 15:49:31 28° 161° (SSE) 15:52:45 2401.200-2431.200
YUBILEINY 24 Nov 15:47:25 15:52:48 18° 284° (WNW) 15:58:11 435.215
VERMONT LUNAR 24 Nov 16:04:01 16:07:23 37° 167° (SSE) 16:10:46 437.305
Cubesat XI-IV 24 Nov 16:14:42 16:19:05 26° 63° (ENE) 16:23:29 437.490
MOZHAYETS 4 24 Nov 16:19:43 16:23:54 32° 96° (E) 16:28:03
AO-7 24 Nov 16:21:44 16:29:06 35° 263° (W) 16:36:33 29.400- 29.500
RS-15 24 Nov 16:26:01 16:36:57 80° 120° (ESE) 16:47:55 29.354- 29.394
STARS 24 Nov 16:28:42 16:30:16 12° 301° (WNW) 16:31:50 437.465
CUTE-I 24 Nov 16:55:31 17:00:45 56° 71° (ENE) 17:05:59 437.470
O/OREOS (USA 219) 24 Nov 17:15:01 17:17:04 13° 262° (W) 17:19:06 437.305
PHONESAT 2.4 24 Nov 17:24:22 17:27:58 48° 178° (S) 17:31:34 2401.200-2431.200
JAS-2 24 Nov 17:25:13 17:32:06 37° 267° (W) 17:39:16 435.910
VERMONT LUNAR 24 Nov 17:42:05 17:45:35 46° 184° (S) 17:49:05 437.305
GONETS M04 24 Nov 17:42:33 17:49:27 25° 62° (ENE) 17:56:17
STRAND 1 24 Nov 17:49:27 17:53:14 21° 92° (E) 17:56:59 437.568
Cubesat XI-IV 24 Nov 17:53:47 17:58:55 46° 261° (W) 18:04:05 437.490
CUBESAT XI-V 24 Nov 17:56:47 18:00:37 25° 94° (E) 18:04:25 437.345
MOZHAYETS 4 24 Nov 17:57:03 18:01:03 29° 293° (WNW) 18:05:02
PRISM 24 Nov 18:06:35 18:10:52 78° 104° (ESE) 18:15:05 437.425
HO-68 24 Nov 18:31:49 18:37:42 29° 58° (ENE) 18:43:37 435.675
CUTE-I 24 Nov 18:37:14 18:41:10 21° 268° (W) 18:45:07 437.470
RS-15 24 Nov 18:40:28 18:50:27 39° 327° (NNW) 19:00:36 29.354- 29.394
SEEDS 24 Nov 18:48:09 18:50:06 13° 61° (ENE) 18:52:02 437.485
PCSat 24 Nov 18:54:04 18:58:25 25° 108° (ESE) 19:02:47 145.827
GOMX 1 24 Nov 18:54:27 18:56:56 14° 63° (ENE) 18:59:22 467.674
PHONESAT 2.4 24 Nov 19:03:03 19:06:28 35° 195° (SSW) 19:09:53 2401.200-2431.200
AIST 1 24 Nov 19:04:59 19:08:56 34° 91° (E) 19:12:55
AAUSAT CUBESAT 2 24 Nov 19:07:28 19:09:57 16° 63° (ENE) 19:12:26 437.432
CANX-2 24 Nov 19:12:07 19:15:42 28° 68° (ENE) 19:19:19 2200.000
BRITE-PL 24 Nov 19:13:20 19:17:39 30° 69° (ENE) 19:21:42 437.365/2234.400
VERMONT LUNAR 24 Nov 19:20:40 19:23:41 25° 201° (SSW) 19:26:42 437.305
COMPASS 1 24 Nov 19:20:42 19:24:02 24° 67° (ENE) 19:27:22 437.405
STRAND 1 24 Nov 19:27:46 19:32:43 52° 290° (WNW) 19:37:39 437.568
CUBESAT XI-V 24 Nov 19:33:52 19:38:09 37° 291° (WNW) 19:42:24 437.345
BEESAT 3 24 Nov 19:37:52 19:41:10 24° 113° (ESE) 19:44:31 437.485
GONETS M04 24 Nov 19:38:29 19:47:21 80° 265° (W) 19:56:07
PRISM 24 Nov 19:44:20 19:45:48 12° 301° (WNW) 19:47:15 437.425
CUTE 1.7 & AOD 2 24 Nov 19:46:19 19:50:27 59° 74° (ENE) 19:54:38 437.475
BEESAT 2 24 Nov 19:51:43 19:55:19 30° 115° (ESE) 19:58:58 435.950
DOVE 4 24 Nov 19:54:59 19:59:18 40° 71° (ENE) 20:03:24 437.250
UKube-1 24 Nov 20:06:09 20:10:02 32° 68° (ENE) 20:13:55 .
FUNcube-1 24 Nov 20:08:14 20:10:49 16° 64° (ENE) 20:13:23 145.935
HO-68 24 Nov 20:17:47 20:24:54 65° 257° (WSW) 20:32:05 435.675
Oscar 11 24 Nov 20:18:18 20:22:24 45° 71° (ENE) 20:26:31 145.826/435.025
AIST 2 24 Nov 20:19:33 20:23:14 29° 115° (ESE) 20:26:58 435.215
SEEDS 24 Nov 20:21:15 20:25:24 65° 259° (W) 20:29:36 437.485
CUBEBUG 2 24 Nov 20:26:00 20:29:48 32° 69° (ENE) 20:33:32 437.445
UWE-3 24 Nov 20:29:22 20:33:04 30° 69° (ENE) 20:36:44 435.000/436.395/437.385
GOMX 1 24 Nov 20:29:49 20:34:38 69° 258° (WSW) 20:39:08 467.674
PCSat 24 Nov 20:36:14 20:41:30 52° 307° (NW) 20:46:49 145.827
DX 1 24 Nov 20:39:39 20:44:02 75° 74° (ENE) 20:48:25 434.975-435.025
AAUSAT CUBESAT 2 24 Nov 20:41:11 20:45:13 52° 260° (W) 20:49:19 437.432
CINEMA 3 24 Nov 20:41:30 20:45:54 75° 75° (ENE) 20:50:10 145.822/145.860
PHONESAT 2.4 24 Nov 20:42:54 20:44:39 13° 210° (SSW) 20:46:23 2401.200-2431.200
AIST 1 24 Nov 20:43:10 20:46:40 23° 289° (WNW) 20:50:13
CANX-2 24 Nov 20:48:00 20:51:36 27° 265° (W) 20:55:14 2200.000
BRITE-PL 24 Nov 20:51:35 20:56:06 33° 263° (W) 21:00:21 437.365/2234.400
DELFI C3 24 Nov 20:53:32 20:57:36 88° 258° (WSW) 21:01:43 145.870
COMPASS 1 24 Nov 20:55:53 20:59:37 32° 264° (W) 21:03:24 437.405
RS-15 24 Nov 20:58:19 21:06:59 25° 2° (N) 21:15:49 29.354- 29.394
ESTCUBE 1 24 Nov 20:58:35 21:01:20 16° 62° (ENE) 21:04:07 437.505/2401.250
50 SAT 24 Nov 21:00:10 21:03:37 28° 68° (ENE) 21:07:05 437.505
HUMSAT D 24 Nov 21:01:28 21:05:14 35° 70° (ENE) 21:08:59 437.325/437.525
VELOX 1 24 Nov 21:03:22 21:07:34 42° 70° (ENE) 21:11:48 145.980
ZACube-1 24 Nov 21:07:07 21:11:18 66° 74° (ENE) 21:15:27 437.345
BEESAT 3 24 Nov 21:15:21 21:19:13 38° 312° (NW) 21:23:09 437.485
CUTE 1.7 & AOD 2 24 Nov 21:24:51 21:26:47 13° 271° (W) 21:28:44 437.475
AISAT 24 Nov 21:28:26 21:32:55 78° 75° (ENE) 21:37:24 437.250
BEESAT 2 24 Nov 21:29:50 21:33:34 32° 314° (NW) 21:37:21 435.950
DOVE 4 24 Nov 21:33:43 21:37:12 21° 266° (W) 21:40:35 437.250
GONETS M04 24 Nov 21:37:41 21:42:39 17° 286° (WNW) 21:47:37
TIGRISAT 24 Nov 21:39:40 21:42:44 18° 93° (E) 21:45:50 435.000
UKube-1 24 Nov 21:42:37 21:46:13 25° 265° (W) 21:49:51 .
FUNcube-1 24 Nov 21:42:43 21:46:49 50° 260° (W) 21:50:53 145.935
CUBEBUG 1 24 Nov 21:46:51 21:51:04 43° 71° (ENE) 21:55:17 437.445
NANOSAT C BR1 24 Nov 21:47:41 21:50:03 15° 91° (E) 21:52:25 145.865
UNISAT 6 24 Nov 21:52:04 21:55:44 25° 95° (E) 21:59:27 437.425
Oscar 11 24 Nov 21:55:56 21:58:48 17° 268° (W) 22:01:42 145.826/435.025
QB50P1 24 Nov 21:56:53 21:59:52 18° 93° (E) 22:02:49 145.935-145.965
AIST 2 24 Nov 21:57:55 22:01:48 33° 313° (NW) 22:05:44 435.215
CUBEBUG 2 24 Nov 22:03:08 22:06:34 23° 266° (W) 22:09:57 437.445
UWE-3 24 Nov 22:06:10 22:09:39 24° 265° (W) 22:13:06 435.000/436.395/437.385
HO-68 24 Nov 22:12:40 22:13:58 11° 276° (W) 22:15:15 435.675
BUGSAT 1 24 Nov 22:14:36 22:17:52 23° 94° (E) 22:21:06 437.445
DX 1 24 Nov 22:19:33 22:20:47 11° 271° (W) 22:22:01 434.975-435.025
ANTELSAT 24 Nov 22:20:13 22:24:31 49° 100° (E) 22:28:54 437.575/2403.000
POPSAT HIP 1 24 Nov 22:20:51 22:24:41 33° 97° (E) 22:28:29 437.405
CINEMA 3 24 Nov 22:22:52 22:23:36 10° 271° (W) 22:24:18 145.822/145.860
PCSat 24 Nov 22:23:53 22:26:14 13° 329° (NNW) 22:28:36 145.827
ESTCUBE 1 24 Nov 22:33:15 22:37:44 61° 259° (W) 22:42:17 437.505/2401.250
50 SAT 24 Nov 22:35:36 22:38:56 25° 265° (W) 22:42:17 437.505
HUMSAT D 24 Nov 22:38:01 22:41:09 21° 266° (W) 22:44:17 437.325/437.525
VELOX 1 24 Nov 22:41:00 22:44:20 20° 267° (W) 22:47:41 145.980
ZACube-1 24 Nov 22:46:50 22:48:07 11° 271° (W) 22:49:24 437.345
POLYITAN 1 24 Nov 22:53:18 22:57:33 77° 103° (ESE) 23:01:46 437.675
QB50P2 24 Nov 22:55:53 23:00:08 82° 103° (ESE) 23:04:22 145.880/145.840
DUCHIFAT 1 24 Nov 23:02:51 23:07:05 85° 284° (WNW) 23:11:17 145.980
AISAT 24 Nov 23:08:53 23:10:05 11° 271° (W) 23:11:18 437.250
TISAT 1 24 Nov 23:10:34 23:14:51 88° 74° (ENE) 23:19:09 437.305
RS-15 24 Nov 23:13:01 23:23:23 42° 35° (NE) 23:34:05 29.354- 29.394
TIGRISAT 24 Nov 23:15:30 23:19:42 45° 289° (WNW) 23:23:59 435.000
SPROUT 24 Nov 23:16:11 23:20:31 87° 76° (ENE) 23:24:52 437.525
AUBIESAT-1 24 Nov 23:18:06 23:21:47 33° 62° (ENE) 23:25:47 437.475
ISS 24 Nov 23:21:06 23:23:58 28° 138° (SE) 23:26:52 145.825
ITUPSAT 1 24 Nov 23:21:43 23:25:15 21° 63° (ENE) 23:28:48 437.325
NANOSAT C BR1 24 Nov 23:22:09 23:26:16 52° 288° (WNW) 23:30:21 145.865
M-CUBED/EXP-1 PRIME 24 Nov 23:22:14 23:26:02 39° 64° (ENE) 23:30:11 437.505
CUBEBUG 1 24 Nov 23:24:25 23:27:38 20° 267° (W) 23:30:52 437.445
UNISAT 6 24 Nov 23:28:36 23:32:35 34° 291° (WNW) 23:36:37 437.425
QB50P1 24 Nov 23:31:59 23:35:57 41° 289° (WNW) 23:39:54 145.935-145.965
SWISSCUBE 24 Nov 23:32:33 23:36:37 28° 66° (ENE) 23:40:41 437.505
CUSAT 1 24 Nov 23:34:01 23:38:23 69° 79° (E) 23:44:18 437.405
BUGSAT 1 24 Nov 23:49:47 23:53:25 31° 291° (WNW) 23:57:00 437.445
DANDE 24 Nov 23:54:08 23:58:22 89° 80° (E) 00:04:10 436.750
POPSAT HIP 1 24 Nov 23:57:05 00:00:27 23° 294° (WNW) 00:03:48 437.405
ANTELSAT 24 Nov 23:57:57 00:01:00 19° 296° (WNW) 00:04:06 437.575/2403.000
BEESAT 25 Nov 00:03:14 00:07:51 50° 71° (ENE) 00:12:30 436.000
